Temperature
19 19 19 19 19 18 18 18 18 18 18 18 18 18 18 18 18 18 18 18 18 18 18 17 17 17 17 17 17 17 17 16 16 17 17 17 17 16 16 16 16 16 16
19 19 19 19 19 18 18 18 18 18 18 18 18 18 18 18 18 18 18 18 18 18 18 17 17 17 17 17 17 17 17 17 16 16 16 16 16 16 16 16 16 16 16
19 19 19 19 18 18 18 18 18 18 18 18 18 18 18 18 18 18 18 18 18 18 18 18 17 17 17 17 17 17 17 17 16 16 16 16 16 16 16 16 16 16 16
19 19 19 18 18 18 18 18 18 18 18 18 18 18 18 18 18 18 18 18 18 18 18 18 17 17 17 17 17 17 16 16 17 16 16 16 16 16 16 16 16 16 16
19 19 19 19 18 18 18 18 18 18 18 18 18 18 18 18 18 18 18 18 18 18 18 18 17 17 17 17 17 17 17 16 16 16 16 16 16 16 16 16 16 16 16
19 19 19 18 18 18 18 18 18 18 18 18 18 18 18 18 18 18 18 18 18 18 18 18 18 17 17 17 17 17 17 17 16 16 16 16 16 16 16 16 16 16 16
19 19 19 18 18 18 18 18 18 18 18 18 18 18 18 18 18 18 18 18 18 18 18 18 18 18 17 17 17 17 17 17 17 17 17 16 16 16 16 16 16 16 16
19 19 19 19 18 18 18 18 18 18 18 18 18 18 18 18 18 18 18 18 18 18 18 18 17 17 17 17 17 17 17 17 17 17 17 16 16 16 16 16 16 16 16
19 19 19 18 18 18 18 18 18 18 18 18 18 17 17 17 17 18 18 18 18 18 18 18 17 17 17 17 17 17 17 17 17 17 16 16 16 16 16 16 16 16 16
19 18 18 18 18 18 18 18 18 18 18 18 18 17 17 17 17 17 18 17 17 17 17 17 17 17 17 17 17 17 17 17 17 17 16 16 16 16 16 16 16 16 16
18 18 18 18 18 18 18 18 18 18 17 17 17 17 17 17 17 17 17 17 17 17 17 17 17 17 17 17 17 17 17 17 17 16 16 16 16 16 16 16 16 16 16
18 18 18 18 18 18 18 18 18 17 17 17 17 17 17 17 17 17 17 17 17 17 17 17 17 17 17 17 17 17 17 17 16 16 16 16 16 16 16 16 16 15 15
18 18 18 18 18 18 18 18 18 17 17 17 17 17 17 17 17 17 17 17 17 17 17 17 17 17 17 17 17 17 17 17 16 16 16 16 16 16 16 16 15 15 15
18 18 18 18 18 18 18 18 17 17 17 17 17 17 17 17 17 17 17 17 16 16 16 17 17 17 17 16 16 16 16 16 16 16 16 16 16 16 16 15 15 15 15
18 18 18 18 18 18 17 17 17 17 17 17 17 17 17 17 17 16 16 17 17 16 16 16 16 16 16 16 16 16 16 16 16 16 16 16 16 15 15 15 15 15 15
18 18 18 18 18 17 17 17 17 17 17 17 17 17 17 16 16 16 16 16 16 16 16 16 16 16 16 16 16 16 16 16 16 16 16 15 15 15 15 15 15 15 15
18 18 18 18 17 17 17 17 17 16 16 16 16 16 16 16 16 16 16 16 16 16 16 16 16 16 16 16 16 16 15 15 15 15 15 15 15 15 15 15 15 15 15
18 18 17 17 17 17 17 17 16 16 16 16 16 16 16 16 16 16 16 16 16 16 15 15 15 15 15 15 15 15 15 15 15 15 15 15 15 15 15 15 14 15 15
18 17 17 17 17 17 16 16 16 16 16 16 16 16 15 15 15 15 15 15 15 15 15 15 15 15 15 15 15 15 15 15 15 15 14 14 14 14 14 14 14 14 14
17 17 17 17 17 16 16 16 16 16 16 16 15 15 15 15 15 15 15 15 15 15 15 14 14 14 14 14 14 14 14 14 14 14 14 14 14 14 14 14 14 14 14
17 17 17 16 16 16 16 16 16 16 15 15 15 15 15 15 14 14 14 14 14 14 14 14 14 14 14 14 14 14 14 14 14 14 14 14 14 14 14 13 13 13 13
17 16 16 16 16 16 16 16 16 15 15 15 15 15 15 14 14 14 14 14 14 14 14 13 13 13 13 13 13 13 13 13 13 13 13 13 13 13 13 13 13 13 13
16 16 16 16 16 16 16 15 15 15 15 15 15 15 14 14 14 14 14 14 13 13 13 13 13 13 13 13 13 13 13 13 13 13 13 13 13 13 13 12 12 12 12
16 16 16 16 16 15 15 15 15 15 15 15 14 14 14 14 14 14 14 13 13 13 13 13 13 13 12 12 12 12 12 12 12 12 12 12 12 12 12 12 12 12 12
16 16 16 16 15 15 15 15 15 15 15 14 14 14 14 14 14 13 13 13 13 13 13 12 12 12 12 12 12 12 12 12 12 12 12 12 12 12 12 12 12 12 12
16 16 15 15 15 15 15 15 15 14 14 14 14 14 13 13 13 13 13 13 13 13 13 13 12 12 12 12 12 12 12 12 11 11 11 11 11 11 11 11 11 11 11
Wind_Speed
2 2 1 2 2 2 2 2 1 1 2 2 3 3 3 4 5 6 8 12 14 14 13 12 12 12 11 11 11 11 11 10 10 10 10 10 10 10 10 11 11 12 12
3 2 2 1 1 2 2 2 2 1 1 1 1 2 3 3 5 7 8 10 13 14 14 13 12 12 12 12 11 11 11 11 10 11 10 10 10 10 10 10 11 12 12
3 2 2 1 1 2 2 1 1 0 0 0 1 1 2 3 4 6 8 8 10 13 14 14 13 12 12 12 12 11 11 10 10 10 10 10 10 10 10 11 11 11 12
3 2 2 1 1 2 2 1 1 1 1 0 1 2 2 2 3 5 6 8 8 9 12 13 13 12 12 12 12 12 11 11 11 11 10 10 10 11 11 10 10 10 11
4 3 2 1 1 1 1 1 1 1 0 1 2 2 2 2 3 3 4 6 7 8 9 10 11 11 11 11 12 12 11 12 12 12 11 11 11 11 11 11 11 12 12
5 4 2 1 1 1 1 0 0 0 1 1 1 1 1 1 1 2 3 4 5 7 8 8 8 9 10 10 11 12 12 12 12 12 12 11 11 12 12 12 12 13 13
4 3 2 2 2 2 2 1 1 1 1 0 1 2 2 2 1 1 1 2 3 5 6 7 7 6 6 8 9 10 11 12 12 12 12 11 11 11 11 11 12 13 14
3 4 3 3 2 2 2 1 1 1 0 1 2 1 2 3 3 1 0 1 2 2 3 6 6 6 6 5 7 9 10 11 11 12 12 11 11 10 11 12 12 13 14
2 2 3 2 2 3 2 2 2 2 1 1 1 2 2 2 2 3 1 0 0 1 2 3 5 6 6 6 7 9 10 9 10 10 11 11 11 11 10 11 12 13 13
2 2 2 2 2 2 2 1 2 2 2 0 1 0 2 3 2 2 3 2 1 1 2 3 3 5 6 6 7 8 9 9 9 10 10 10 10 10 10 10 11 12 13
1 2 2 2 2 1 1 1 1 1 1 1 0 0 0 0 1 2 2 3 2 2 2 3 2 3 5 6 6 7 9 9 9 9 9 9 9 9 9 9 9 9 10
0 1 2 1 1 1 1 1 1 1 1 1 1 0 1 1 1 2 2 2 2 3 2 2 2 2 4 5 7 7 7 8 9 9 9 9 9 9 8 8 8 8 9
1 0 1 1 1 1 1 1 1 1 1 1 1 1 1 1 2 2 2 2 2 2 1 1 2 2 3 4 5 6 7 8 8 8 8 8 8 8 8 8 8 8 8
2 2 1 1 2 2 2 2 1 0 1 0 0 0 0 1 1 2 2 2 1 2 2 2 2 2 2 3 4 6 5 7 8 7 8 8 8 8 8 8 7 8 8
2 2 2 2 2 2 2 2 1 0 1 1 1 1 1 1 1 1 1 3 3 1 3 3 2 2 1 2 3 4 5 7 7 7 7 7 7 7 7 7 7 7 7
2 2 2 1 1 1 1 2 1 0 1 1 1 1 1 1 1 1 1 1 2 3 3 3 2 2 2 1 2 2 4 6 7 7 6 5 5 5 6 6 6 6 6
3 3 2 2 2 1 1 1 1 0 0 1 1 1 1 1 1 2 1 1 1 2 2 3 2 2 2 2 2 1 2 4 4 5 5 5 5 5 5 4 5 5 5
3 3 2 2 2 1 1 1 1 0 0 1 1 1 2 1 2 2 2 1 1 1 2 2 2 2 2 2 2 2 2 1 3 3 4 4 5 4 3 3 2 3 3
2 2 2 2 2 1 1 1 1 1 1 1 1 0 1 1 1 2 1 1 1 1 1 2 2 2 1 1 2 2 2 1 1 2 3 4 4 3 3 3 3 3 3
3 2 2 2 2 2 1 2 2 1 1 1 1 1 1 0 1 1 1 1 1 1 0 0 1 2 2 2 1 1 3 2 2 2 1 2 3 3 3 2 3 3 3
3 3 2 2 2 2 2 2 2 2 1 1 1 1 1 0 0 1 0 0 0 0 0 0 1 2 2 1 1 2 2 3 2 1 1 1 1 1 2 4 3 3 3
3 3 3 2 2 2 2 3 3 2 2 1 1 2 1 1 2 1 1 1 1 1 2 1 1 1 3 2 2 2 1 1 2 2 0 2 0 1 2 3 3 3 3
3 3 3 3 3 3 4 4 3 2 2 2 2 2 1 1 1 1 1 2 2 1 3 4 3 3 3 3 2 2 2 2 3 3 1 2 1 1 2 3 3 3 4
3 4 3 4 4 4 4 4 3 3 2 2 2 2 2 2 1 1 0 1 2 2 2 2 4 5 4 4 4 4 4 2 2 2 1 1 2 2 2 2 4 4 4
3 4 4 4 5 4 4 4 4 2 2 2 3 2 2 2 3 2 1 0 2 3 3 2 3 4 4 4 2 1 0 1 1 2 1 1 1 2 2 2 3 4 5
4 4 3 4 5 5 5 5 5 3 2 2 2 2 3 3 3 3 2 2 2 3 3 4 4 4 3 2 2 3 3 2 1 2 2 1 1 0 1 2 2 2 4
Wind_Direction
145 153 155 160 164 182 170 162 178 203 212 226 208 184 180 182 179 189 198 197 197 198 197 198 202 203 201 200 202 207 209 211 211 211 211 210 212 213 212 212 208 208 206
150 148 139 145 156 175 184 176 181 196 207 206 218 191 188 189 182 187 198 200 200 202 203 205 206 208 206 206 207 207 212 214 217 218 216 216 217 216 214 213 212 210 209
152 152 142 150 167 172 148 148 135 37 342 259 269 234 215 205 195 192 197 200 205 209 209 209 209 209 209 210 212 212 215 217 217 216 217 218 218 218 216 216 215 215 213
148 138 138 165 183 153 130 115 94 74 359 313 266 262 240 232 216 202 198 200 204 208 212 215 214 215 215 218 218 216 216 218 218 217 217 221 224 222 220 218 217 217 216
155 149 147 173 170 128 103 125 107 126 340 297 267 261 254 246 237 214 196 194 197 200 202 208 212 217 222 225 222 220 220 221 221 218 219 223 226 226 222 220 219 220 219
156 152 155 172 161 124 104 92 119 122 214 245 283 298 284 264 246 222 204 194 193 198 199 202 207 218 223 222 225 222 220 222 223 220 220 223 225 226 224 224 224 225 224
159 157 173 183 171 165 191 201 150 96 342 78 61 359 350 340 318 252 213 183 198 201 193 196 196 199 214 226 227 225 223 223 223 222 223 223 225 226 225 229 229 229 229
162 171 171 182 175 165 165 159 134 116 326 101 126 88 5 348 334 315 260 189 212 194 190 197 197 196 199 207 218 220 224 224 221 221 223 223 225 228 230 232 231 232 233
147 153 169 174 168 160 169 177 160 145 174 323 130 139 145 235 298 327 325 329 205 191 212 198 195 201 204 205 214 223 225 229 229 227 226 224 225 228 231 233 235 234 233
145 142 150 157 159 157 158 176 151 148 145 218 310 182 175 172 173 306 326 320 260 233 234 226 217 203 203 204 215 221 227 231 231 231 229 225 227 231 234 235 236 235 233
119 127 122 139 148 154 150 136 121 127 144 165 182 312 10 199 151 171 275 313 326 292 253 238 224 204 201 204 211 222 225 226 227 230 230 227 229 233 236 234 236 235 233
132 107 109 123 149 150 153 161 140 124 132 133 137 166 187 196 213 181 221 268 281 288 283 247 222 214 206 205 210 219 219 218 222 227 227 227 229 231 230 231 233 235 237
153 158 129 136 147 155 155 136 107 98 102 116 160 222 228 225 205 187 187 240 270 290 301 287 258 227 211 202 207 216 218 217 221 226 228 226 230 230 228 232 233 236 236
181 168 153 140 127 115 115 118 105 114 71 65 317 265 298 273 219 192 187 183 288 318 317 282 301 267 230 206 211 203 205 216 219 226 232 230 229 227 226 230 234 234 234
162 151 149 139 131 117 119 118 103 59 45 12 329 324 311 297 289 249 199 174 173 247 280 271 292 297 269 199 218 205 203 206 210 218 226 222 220 223 229 233 232 230 230
155 152 152 140 135 130 113 111 112 78 57 342 320 5 353 316 331 321 256 214 176 187 240 260 266 275 284 296 293 224 218 212 213 215 222 224 225 226 228 233 233 225 220
167 171 175 156 151 160 162 122 175 130 54 331 337 6 337 339 343 328 340 326 240 178 218 281 293 304 324 314 327 305 247 226 223 219 217 216 222 225 224 232 233 217 210
177 184 177 160 172 186 203 178 198 216 210 293 309 3 347 5 2 345 358 343 295 211 185 248 293 305 304 296 311 319 324 258 222 227 216 210 223 218 212 220 218 211 207
176 176 161 165 177 185 190 202 197 209 222 231 226 190 292 47 356 335 346 339 320 338 153 195 263 285 299 315 332 331 340 318 265 261 229 221 223 212 202 214 207 198 192
170 168 158 167 185 196 199 207 200 193 213 243 223 205 208 145 253 286 324 315 334 46 65 163 291 308 308 305 356 334 330 318 298 294 261 223 227 217 215 220 206 188 178
177 167 167 181 201 208 226 212 201 186 189 253 289 268 219 231 249 255 270 233 89 70 64 183 290 329 326 337 297 281 294 303 306 292 293 286 251 239 232 232 226 210 201
187 175 178 186 202 232 229 200 181 183 187 210 263 285 279 304 325 342 342 143 152 173 194 200 240 268 274 268 269 276 298 327 305 289 202 291 246 254 240 223 228 226 216
189 195 200 189 207 238 230 212 194 184 193 213 229 249 280 298 335 332 354 17 347 264 186 185 204 236 245 246 239 258 259 240 252 268 190 282 283 262 252 240 227 230 221
197 204 208 202 211 237 231 224 209 193 196 224 233 230 235 262 270 176 133 353 325 313 274 214 212 233 239 235 222 223 230 246 294 299 144 233 284 275 267 246 238 225 220
205 211 207 201 209 235 230 215 200 182 199 250 259 252 226 231 257 195 153 255 314 309 303 287 264 263 265 252 214 144 88 95 317 295 292 174 270 307 298 279 257 239 229
204 210 216 214 214 227 226 214 192 180 201 245 267 261 238 228 238 201 183 190 255 281 310 324 322 318 307 288 219 188 190 182 204 274 268 166 223 42 323 300 284 248 238
Height
1525 1525 1525 1525 1525 1526 1526 1527 1528 1528 1528 1529 1530 1530 1530 1531 1531 1531 1532 1532 1533 1534 1534 1535 1535 1536 1537 1537 1538 1538 1539 1540 1541 1542 1542 1543 1544 1545 1545 1546 1548 1549 1550
1526 1526 1526 1526 1526 1527 1527 1528 1528 1528 1528 1529 1530 1530 1531 1531 1531 1531 1532 1532 1533 1533 1533 1534 1534 1535 1535 1536 1537 1537 1537 1538 1539 1540 1540 1541 1542 1543 1543 1544 1545 1546 1547
1527 1527 1527 1527 1527 1527 1528 1528 1528 1528 1528 1529 1529 1530 1531 1531 1531 1531 1531 1532 1532 1532 1533 1533 1533 1534 1534 1535 1535 1535 1536 1537 1537 1538 1538 1539 1540 1540 1541 1542 1543 1544 1545
1528 1528 1527 1527 1527 1528 1528 1528 1528 1528 1528 1529 1529 1530 1530 1530 1531 1530 1531 1531 1531 1531 1532 1532 1532 1533 1533 1533 1533 1534 1534 1535 1535 1536 1536 1537 1537 1538 1539 1539 1540 1541 1542
1528 1528 1528 1528 1528 1528 1528 1528 1529 1529 1529 1529 1529 1529 1529 1530 1530 1530 1530 1530 1530 1530 1530 1531 1531 1531 1531 1531 1531 1532 1532 1533 1533 1534 1534 1534 1535 1535 1536 1537 1538 1538 1539
1528 1528 1528 1528 1528 1528 1528 1528 1528 1528 1528 1528 1528 1529 1529 1529 1529 1529 1529 1529 1529 1529 1529 1529 1530 1530 1530 1529 1529 1529 1530 1530 1531 1531 1532 1532 1532 1533 1533 1534 1535 1535 1536
1527 1527 1528 1528 1528 1528 1527 1528 1528 1528 1528 1528 1528 1527 1528 1528 1528 1528 1528 1528 1527 1527 1528 1528 1528 1528 1528 1528 1527 1527 1528 1528 1528 1528 1529 1529 1530 1530 1530 1531 1532 1532 1533
1527 1527 1527 1527 1527 1527 1527 1527 1527 1527 1527 1527 1527 1527 1526 1528 1527 1527 1527 1526 1526 1526 1527 1527 1527 1527 1527 1526 1526 1526 1526 1526 1526 1526 1526 1527 1527 1527 1527 1528 1528 1529 1529
1526 1526 1526 1526 1526 1526 1526 1526 1526 1526 1526 1526 1527 1527 1526 1526 1525 1526 1526 1526 1526 1525 1525 1526 1526 1525 1525 1525 1525 1524 1524 1524 1524 1524 1524 1524 1524 1524 1524 1524 1525 1525 1526
1525 1525 1525 1525 1525 1526 1525 1525 1526 1525 1525 1525 1525 1525 1526 1525 1525 1524 1525 1525 1525 1524 1524 1524 1524 1524 1524 1523 1523 1522 1522 1522 1522 1521 1521 1521 1521 1521 1521 1521 1521 1521 1522
1524 1524 1524 1524 1525 1525 1525 1525 1525 1524 1524 1524 1524 1524 1524 1524 1524 1524 1523 1523 1523 1523 1523 1523 1522 1522 1522 1521 1521 1521 1520 1520 1520 1519 1519 1519 1518 1518 1518 1518 1518 1518 1518
1523 1523 1524 1524 1524 1524 1524 1524 1523 1523 1523 1523 1523 1523 1523 1522 1522 1522 1522 1521 1521 1522 1522 1521 1521 1520 1520 1519 1519 1519 1518 1518 1518 1517 1517 1516 1516 1516 1515 1515 1515 1515 1515
1522 1522 1522 1523 1523 1523 1523 1523 1522 1522 1522 1522 1521 1521 1521 1521 1521 1521 1520 1520 1520 1520 1520 1519 1519 1518 1518 1517 1517 1517 1516 1516 1516 1515 1515 1514 1514 1513 1513 1512 1512 1512 1512
1521 1521 1522 1522 1522 1522 1522 1522 1521 1521 1521 1520 1520 1520 1520 1520 1520 1519 1519 1519 1518 1517 1517 1517 1517 1516 1516 1515 1514 1514 1514 1513 1513 1513 1512 1512 1511 1510 1510 1509 1509 1509 1509
1520 1521 1521 1521 1521 1521 1521 1520 1520 1520 1520 1520 1519 1519 1519 1518 1518 1518 1517 1517 1517 1515 1515 1515 1515 1514 1514 1513 1512 1512 1511 1511 1510 1510 1509 1509 1508 1508 1507 1507 1506 1506 1506
1519 1520 1520 1519 1519 1519 1519 1519 1519 1519 1519 1518 1518 1518 1517 1517 1516 1516 1515 1515 1515 1514 1513 1513 1512 1512 1512 1511 1510 1509 1508 1508 1508 1507 1506 1506 1505 1505 1504 1504 1503 1503 1503
1518 1518 1518 1518 1518 1518 1518 1518 1518 1517 1517 1517 1517 1516 1515 1515 1514 1513 1513 1513 1512 1512 1511 1510 1510 1510 1509 1508 1508 1507 1506 1505 1504 1504 1503 1503 1503 1502 1501 1501 1500 1500 1500
1516 1517 1517 1516 1516 1516 1516 1516 1516 1516 1515 1515 1514 1514 1513 1513 1512 1511 1511 1510 1510 1509 1509 1508 1508 1507 1507 1506 1505 1505 1504 1503 1502 1501 1501 1500 1500 1499 1498 1498 1498 1497 1497
1515 1515 1515 1515 1514 1514 1514 1514 1514 1514 1513 1513 1512 1512 1511 1511 1510 1509 1508 1508 1507 1507 1507 1506 1505 1504 1504 1503 1503 1502 1501 1500 1500 1499 1498 1498 1497 1497 1496 1496 1495 1495 1494
1513 1513 1512 1512 1512 1512 1512 1512 1512 1512 1511 1511 1510 1510 1509 1508 1507 1507 1506 1505 1505 1504 1504 1503 1502 1502 1501 1500 1500 1499 1498 1498 1497 1497 1496 1496 1495 1495 1494 1493 1493 1492 1492
1510 1510 1510 1510 1510 1510 1510 1510 1509 1509 1509 1508 1508 1507 1507 1506 1505 1504 1503 1503 1503 1502 1501 1501 1500 1499 1498 1497 1497 1496 1496 1495 1495 1494 1494 1493 1493 1492 1492 1491 1490 1490 1490
1508 1508 1508 1508 1507 1507 1507 1507 1507 1507 1506 1506 1506 1505 1504 1504 1503 1502 1501 1501 1500 1499 1499 1498 1497 1496 1496 1495 1495 1494 1493 1493 1492 1492 1491 1491 1490 1490 1489 1489 1488 1488 1488
1505 1505 1505 1505 1505 1505 1505 1504 1504 1504 1504 1503 1503 1503 1502 1501 1501 1500 1499 1498 1498 1497 1497 1496 1495 1494 1494 1493 1492 1492 1491 1490 1490 1490 1489 1488 1488 1487 1487 1487 1487 1487 1486
1502 1502 1502 1502 1502 1502 1502 1501 1501 1501 1501 1501 1501 1500 1500 1499 1499 1498 1497 1496 1495 1495 1494 1494 1493 1492 1492 1491 1490 1490 1489 1489 1488 1488 1487 1485 1485 1485 1485 1485 1485 1485 1484
1499 1499 1499 1498 1498 1498 1499 1498 1498 1498 1498 1498 1498 1498 1498 1497 1497 1496 1495 1494 1493 1492 1492 1491 1490 1490 1489 1489 1488 1487 1487 1486 1485 1484 1484 1483 1483 1482 1483 1483 1483 1482 1482
1495 1496 1496 1495 1495 1495 1495 1495 1495 1495 1495 1495 1495 1495 1495 1495 1494 1494 1493 1491 1490 1489 1489 1488 1488 1487 1487 1486 1485 1485 1484 1483 1482 1482 1481 1481 1481 1481 1480 1480 1480 1480 1480